• In Hungary
  • List of Countries
  • For 7 days
  • Water Temperature
  • Satellite Maps
  • Weather Map
  • News
  • Weather Widgets
  • user-avatar
    Login

    Hourly Weather Ząbkowice Śląskie

    Today, 23 September, Sunday

    Time Temperature Precipitation Wind Pressure Humidity
    00:00 +12°C° 0 mm 3 mps 738 mmHg 67%
    01:00 +12°C° 0 mm 4 mps 738 mmHg 70%
    02:00 +11°C° 0 mm 4 mps 738 mmHg 72%
    03:00 +11°C° 0 mm 4 mps 738 mmHg 75%
    04:00 +11°C° 0 mm 3 mps 738 mmHg 78%
    05:00 +11°C° 0 mm 4 mps 738 mmHg 77%
    06:00 +11°C° 0 mm 4 mps 737 mmHg 77%
    07:00 +11°C° 0 mm 4 mps 737 mmHg 76%
    08:00 +12°C° 0 mm 4 mps 737 mmHg 73%
    09:00 +13°C° 0 mm 4 mps 737 mmHg 70%
    10:00 +14°C° 0 mm 4 mps 737 mmHg 67%
    11:00 +14°C° 0.1 mm 4 mps 737 mmHg 68%
    12:00 +14°C° 0.1 mm 5 mps 736 mmHg 68%
    13:00 +14°C° 0.1 mm 5 mps 735 mmHg 69%
    14:00 +14°C° 0.8 mm 4 mps 734 mmHg 75%
    15:00 +13°C° 0.8 mm 4 mps 733 mmHg 81%
    16:00 +12°C° 0.8 mm 3 mps 732 mmHg 87%
    17:00 +13°C° 0.5 mm 4 mps 731 mmHg 88%
    18:00 +14°C° 0.5 mm 6 mps 730 mmHg 88%
    19:00 +14°C° 0.5 mm 7 mps 728 mmHg 88%
    20:00 +14°C° 1.5 mm 7 mps 728 mmHg 88%
    21:00 +14°C° 1.5 mm 7 mps 728 mmHg 89%
    22:00 +12°C° 1.5 mm 7 mps 728 mmHg 89%
    23:00 +11°C° 0.8 mm 7 mps 729 mmHg 89%

    Tomorrow, 24 September, Monday

    Time Temperature Precipitation Wind Pressure Humidity
    00:00 +10°C° 0.8 mm 7 mps 730 mmHg 89%
    01:00 +8°C° 0.8 mm 7 mps 731 mmHg 89%
    02:00 +8°C° 0.3 mm 6 mps 732 mmHg 88%
    03:00 +8°C° 0.3 mm 6 mps 734 mmHg 87%
    04:00 +8°C° 0.3 mm 6 mps 736 mmHg 86%
    05:00 +8°C° 0 mm 7 mps 737 mmHg 85%
    06:00 +6°C° 0 mm 7 mps 737 mmHg 84%
    07:00 +6°C° 0 mm 8 mps 738 mmHg 83%
    08:00 +7°C° 0 mm 8 mps 739 mmHg 77%
    09:00 +8°C° 0 mm 9 mps 740 mmHg 71%
    10:00 +8°C° 0 mm 9 mps 741 mmHg 64%
    11:00 +9°C° 0.1 mm 10 mps 741 mmHg 60%
    12:00 +9°C° 0.1 mm 10 mps 741 mmHg 55%
    13:00 +11°C° 0.1 mm 10 mps 742 mmHg 51%
    14:00 +9°C° 0.1 mm 10 mps 742 mmHg 50%
    15:00 +10°C° 0.1 mm 9 mps 742 mmHg 50%
    16:00 +10°C° 0.1 mm 9 mps 742 mmHg 50%
    17:00 +9°C° 0 mm 8 mps 743 mmHg 53%
    18:00 +7°C° 0 mm 6 mps 743 mmHg 57%
    19:00 +6°C° 0 mm 5 mps 743 mmHg 60%
    20:00 +6°C° 0 mm 5 mps 744 mmHg 62%
    21:00 +6°C° 0 mm 5 mps 744 mmHg 63%
    22:00 +5°C° 0 mm 5 mps 745 mmHg 65%
    23:00 +5°C° 0 mm 5 mps 745 mmHg 67%

    Day after tomorrow, 25 September, Tuesday

    Time Temperature Precipitation Wind Pressure Humidity
    00:00 +5°C° 0 mm 5 mps 746 mmHg 69%
    01:00 +3°C° 0 mm 5 mps 746 mmHg 71%
    02:00 +3°C° 0 mm 5 mps 747 mmHg 73%
    03:00 +4°C° 0 mm 4 mps 747 mmHg 75%
    04:00 +4°C° 0 mm 4 mps 748 mmHg 77%
    05:00 +4°C° 0 mm 4 mps 748 mmHg 77%
    06:00 +4°C° 0 mm 4 mps 749 mmHg 77%
    07:00 +4°C° 0 mm 4 mps 749 mmHg 77%
    08:00 +5°C° 0 mm 4 mps 750 mmHg 71%
    09:00 +7°C° 0 mm 4 mps 750 mmHg 65%
    10:00 +8°C° 0 mm 5 mps 751 mmHg 60%
    11:00 +9°C° 0 mm 5 mps 751 mmHg 56%
    12:00 +10°C° 0 mm 5 mps 751 mmHg 52%
    13:00 +12°C° 0 mm 5 mps 751 mmHg 49%
    14:00 +11°C° 0 mm 4 mps 751 mmHg 49%
    15:00 +11°C° 0 mm 4 mps 751 mmHg 49%
    16:00 +11°C° 0 mm 4 mps 751 mmHg 50%
    17:00 +10°C° 0 mm 3 mps 751 mmHg 55%
    18:00 +8°C° 0 mm 2 mps 751 mmHg 61%
    19:00 +7°C° 0 mm 2 mps 752 mmHg 67%
    20:00 +7°C° 0 mm 1 mps 752 mmHg 68%
    21:00 +7°C° 0 mm 1 mps 752 mmHg 69%
    22:00 +6°C° 0 mm 1 mps 752 mmHg 70%
    23:00 +6°C° 0 mm 1 mps 752 mmHg 70%

    26 September, Wednesday

    Time Temperature Precipitation Wind Pressure Humidity
    00:00 +6°C° 0 mm 1 mps 752 mmHg 70%
    01:00 +5°C° 0 mm 1 mps 752 mmHg 71%
    02:00 +5°C° 0 mm 1 mps 752 mmHg 71%
    03:00 +5°C° 0 mm 1 mps 752 mmHg 72%
    04:00 +5°C° 0 mm 1 mps 752 mmHg 73%
    05:00 +4°C° 0 mm 2 mps 752 mmHg 72%
    06:00 +5°C° 0 mm 2 mps 752 mmHg 71%
    07:00 +5°C° 0 mm 2 mps 752 mmHg 70%
    08:00 +7°C° 0 mm 3 mps 752 mmHg 63%
    09:00 +9°C° 0 mm 3 mps 751 mmHg 56%
    10:00 +12°C° 0 mm 4 mps 751 mmHg 49%
    11:00 +13°C° 0 mm 4 mps 751 mmHg 47%
    12:00 +14°C° 0 mm 4 mps 750 mmHg 45%
    13:00 +15°C° 0 mm 4 mps 749 mmHg 43%
    14:00 +14°C° 0 mm 4 mps 749 mmHg 45%
    15:00 +14°C° 0 mm 4 mps 748 mmHg 47%
    16:00 +14°C° 0 mm 4 mps 748 mmHg 49%
    17:00 +13°C° 0 mm 4 mps 748 mmHg 52%
    18:00 +11°C° 0 mm 4 mps 748 mmHg 55%
    19:00 +10°C° 0 mm 4 mps 747 mmHg 59%
    20:00 +10°C° 0 mm 3 mps 747 mmHg 59%
    21:00 +9°C° 0 mm 3 mps 747 mmHg 58%
    22:00 +9°C° 0 mm 3 mps 747 mmHg 58%
    23:00 +9°C° 0 mm 3 mps 747 mmHg 59%

    27 September, Thursday

    Time Temperature Precipitation Wind Pressure Humidity
    00:00 +9°C° 0 mm 3 mps 747 mmHg 59%
    01:00 +8°C° 0 mm 3 mps 747 mmHg 59%
    02:00 +8°C° 0 mm 3 mps 746 mmHg 60%
    03:00 +8°C° 0 mm 2 mps 746 mmHg 60%
    04:00 +8°C° 0 mm 2 mps 746 mmHg 61%
    05:00 +8°C° 0 mm 2 mps 746 mmHg 61%
    06:00 +9°C° 0 mm 2 mps 746 mmHg 62%
    07:00 +9°C° 0 mm 2 mps 746 mmHg 63%
    08:00 +11°C° 0 mm 3 mps 746 mmHg 57%
    09:00 +14°C° 0 mm 3 mps 746 mmHg 50%
    10:00 +17°C° 0 mm 3 mps 746 mmHg 44%
    11:00 +18°C° 0 mm 3 mps 746 mmHg 43%
    12:00 +19°C° 0 mm 3 mps 746 mmHg 41%
    13:00 +20°C° 0 mm 3 mps 745 mmHg 40%
    14:00 +20°C° 0 mm 3 mps 745 mmHg 43%
    15:00 +20°C° 0 mm 3 mps 745 mmHg 46%
    16:00 +20°C° 0 mm 2 mps 744 mmHg 48%
    17:00 +18°C° 0 mm 2 mps 744 mmHg 52%
    18:00 +16°C° 0 mm 2 mps 744 mmHg 56%
    19:00 +14°C° 0 mm 2 mps 744 mmHg 60%
    20:00 +14°C° 0 mm 2 mps 744 mmHg 59%
    21:00 +13°C° 0 mm 2 mps 744 mmHg 58%
    22:00 +13°C° 0 mm 2 mps 744 mmHg 58%
    23:00 +13°C° 0 mm 2 mps 743 mmHg 57%

    28 September, Friday

    Time Temperature Precipitation Wind Pressure Humidity
    00:00 +12°C° 0 mm 2 mps 743 mmHg 57%
    01:00 +12°C° 0 mm 2 mps 743 mmHg 57%
    02:00 +12°C° 0 mm 2 mps 742 mmHg 58%
    03:00 +10°C° 0 mm 2 mps 742 mmHg 59%
    04:00 +10°C° 0 mm 2 mps 742 mmHg 60%
    05:00 +10°C° 0 mm 2 mps 741 mmHg 62%
    06:00 +12°C° 0 mm 2 mps 741 mmHg 63%
    07:00 +12°C° 0 mm 2 mps 741 mmHg 65%
    08:00 +14°C° 0 mm 2 mps 741 mmHg 59%
    09:00 +16°C° 0 mm 2 mps 741 mmHg 53%
    10:00 +18°C° 0 mm 2 mps 741 mmHg 47%
    11:00 +19°C° 0 mm 2 mps 740 mmHg 45%
    12:00 +20°C° 0 mm 3 mps 740 mmHg 43%
    13:00 +21°C° 0 mm 3 mps 739 mmHg 41%
    14:00 +21°C° 0 mm 3 mps 739 mmHg 44%
    15:00 +21°C° 0 mm 2 mps 738 mmHg 47%
    16:00 +21°C° 0 mm 2 mps 737 mmHg 50%
    17:00 +19°C° 0 mm 2 mps 737 mmHg 56%
    18:00 +17°C° 0 mm 2 mps 737 mmHg 61%
    19:00 +15°C° 0 mm 2 mps 737 mmHg 67%
    20:00 +14°C° 0 mm 2 mps 737 mmHg 69%
    21:00 +14°C° 0 mm 2 mps 737 mmHg 71%
    22:00 +13°C° 0 mm 2 mps 737 mmHg 72%
    23:00 +13°C° 0 mm 2 mps 736 mmHg 73%
    Show more